カタログに戻る

STARLINK-31819

運用中通信VLEO
NORAD 59738·PAYLOAD·🇺🇸 United States

打ち上げ May 13, 2024 から Cape Canaveral Space Force Station

Loading…

次のパス (今後24時間)

TLE

最新Source: CelesTrak SupGP

元期: Sep 15, 2026, 02:36 UTC

1 59738C 24090J   26258.10881944 -.00024190  00000+0 -87627-3 0  2583
2 59738  43.0024 193.7732 0001311 270.9853 287.4039 15.27586583    13

AllMySatでSTARLINK-31819をリアルタイム追跡

Download on the App Store